OBJECT C

Satellite information

Favourite Embed

Satellite Type and Status

UNKNOWNIN ORBIT

Key statistics

Satellite OBJECT C at a glance.

Uptime

476

Days in orbit

Revolutions

≈ 15.4

Per day

Orbit

SSO

Sun Synchronous Orbit

Inclination

97.6

Latest

Satellite identification and parameters

Extended collection of information and parameters for OBJECT C.

Object identification

Identified? True

Debris? False

Object name: OBJECT C

International designator: 2024-095C

Object number (NORAD): 59812

Object ID (CCSDS): 59812

Country: PEOPLES REPUBLIC OF CHINA (PRC)

Current information (Y/N): Y

RCS size: MEDIUM

Orbital parameters

Period: 93.677 minutes

Inclination: 97.5625 deg

SMA: 6832.521 km

Apoapsis: 458.79 km

Periapsis: 449.983 km

RAAN: 337.8151 deg

Eccentricy: 0.00064446

Argument of periapsis: 66.7826 deg

Mean anomaly: 293.4096 deg

Mean motion: 15.37203186 rev/day

Mean motion (dot): 0.00034641 rev/day2

B* drag term: 0.00094941099 1/REarth

Two-line elements (TLE)

Creation date: Sept. 8, 2025, 6:18 p.m.

Reference frame: TEME

Reference center: EARTH

Epoch: Sept. 8, 2025, 2:10 p.m. UTC

TLE line 0: 0 OBJECT C

TLE line 1: 1 59812U 24095C 25251.59090429 .00034641 00000-0 94941-3 0 9996

TLE line 2: 2 59812 97.5625 337.8151 0006445 66.7826 293.4096 15.37203186 72393

Live tracking on map

Real-time ground track for satellite OBJECT C.

In-orbit conjunctions

There are no conjunctions computed for OBJECT C, at the moment. Check back to stay up to date, as we update our databases every day.

Go to all conjunctions

Associated space launch

Carried 4 satellites to SSO: * Wuhan-1 * Chutian 001 * Tianyan 22 * Lingque-3 01

OBJECT C was lifted into orbit during the mission ‘Kuaizhou-11 | Wuhan-1 and others’, on board a Kuaizhou-11 space rocket.

The launch took place on May 21, 2024, 4:15 a.m. from Launch Area 95A.

For more information about the launch, click the button.

Launch to space Kuaizhou-11 | Wuhan-1 and others
Kuaizhou-11 | Wuhan-1 and others

Agency: N/A

Status: Launch Successful

Launch date: May 21, 2024, 4:15 a.m. UTC

Rocket: Kuaizhou-11

Launch pad: Launch Area 95A

Location: Jiuquan Satellite Launch Center, People's Republic of China

...

Latest news about this satellite

There are no fresh news available about this satellite. Check back as we update our databases every day.


Newsletter sign-up

Weekly statistics, charts and insights to help you stay on top of the space industry.